STARLINK-32577, 62044

Orbit data source: Space-Track

STARLINK-32577, 62044 is a payload satellite owned by SpaceX/Seattle (US) in LEO that was launched on Thu, 21 Nov 2024 UTC via an FALCON 9 launch vehicle from the Air Force Eastern Test Range (AFETR). Payload-class satellites include a variety of spacecraft equipped with specific instruments for various scientific and technological missions. These include communications satellites like Starlink; space stations such as the ISS; scientific satellites like the Hubble; Earth observation satellites from companies like Planet Labs, Umbra, and HawkEye 360; GPS; miniature CubeSats for education and research; and military/defense satellites.

Loading next visibility...
Identifier
62044, 2024-216N
Orbit
LEO
Country
Flag of USUS
Related business
Manufacturer
SpaceX/Seattle
Mission
Operational Commercial Communications
Bus & Motor
STARLINK V2M, Unknown motor
Mass
730 kg wet, ~700 kg dry
Launch date (UTC)
2024-11-21 (2 years ago)
Launch vehicle
FALCON 9
Launch site
Air Force Eastern Test Range (AFETR)
Object type
Payload
Rocket body
Debris
Shape & HBR
Box + 2 Pan, 17.7 m
Radar Cross Section
33.884 m², Large (>1 m²)

Expand to show TLE details & history
Last TLE update: 7 hours ago

TLE from 7 hours ago
0 STARLINK-32577
1 62044U 24216N   26169.97316380 -.00005866  00000-0 -20382-3 0  9997
2 62044  43.0035  51.4228 0001396 278.5917  81.4777 15.27577367 89295
Epoch: 2026-06-18T23:21Z
TLE epoch observation values (Epoch: 2026-06-18T23:21:21.352Z)
Latitude
0.00002°
Longitude
153.87505°
Altitude
482.691 km
Speed
7.626 km/s
True Right ascension
03h 25m 41s
True Declination
0° 00' 00"
Sunlit
Object was in daylight at epoch
Visualization orbit readout
Latitude
Unknown
Longitude
Unknown
Altitude
Unknown
Speed
Unknown
Apparent Right ascension
Unknown
Apparent Declination
Unknown
Sunlit
N/A
Visualization observer readout
Local Sidereal Time
16:55:04
Azimuth
Unknown
Elevation
Unknown
Doppler factor
Unknown
Orbital elements
Apogee altitude
485.96 km
Perigee altitude
484.043 km
Semi-major axis
6,863.139 km
Eccentricity
0.00014
Inclination
43.0035°
RAAN
51.4228°
Arg. of periapsis
278.5917°
True anomaly
81.49352°
Mean anomaly
81.4777°
Eccentric anomaly
81.48561°
Mean motion
3.81732 °/min
Orbital period
94.31 mins
BSTAR
-0.00020382
Loading maneuver chart data...
Computing Atmospheric mass density...
Loading historical data...
Loading historical data...
Loading historical data...
Loading historical data...
Loading historical data...
Loading historical data...
Loading historical data...

Documentation

Showing up to 5 results
|